COSMOS 991

导读 | 星芒AI

COSMOS 991 是苏联于1978年4月14日发射的一颗军用侦察卫星,属于“流星”系列(Meteosat),主要用于电子情报和信号情报收集。该卫星由质子-K火箭从拜科努尔航天发射场发射升空,进入近地轨道。COSMOS 991 的任务涉及监测敌方通信和雷达信号,为苏联军事提供战略情报支持。由于其军事性质,关于该卫星的具体技术细节和任务内容大多未公开,至今仍属于高度机密。

基本信息
目录编号:
10692
目录名称:
COSMOS 991
国际标识:
1978-022A
轨道中心:
EARTH
卫星名称:
COSMOS 991
卫星全名:
--
卫星状态:
在轨 (已飞行17457 天)
发射日期:
1978-02-28 UTC
国别 :
俄罗斯(独联体) (CIS)
星等 :
--
轨道信息
数据来源 国际轨道数据 AOE轨道数据
星历时间 2025-12-14T12:24:09+0800
1天前
查看轨道信息
2025-12-13T03:00:00+0800
2天前
查看轨道信息
半长轴 7354.275km 7354.286km
偏心率 0.0037853 0.0037992
轨道倾角 82.989° 82.989°
近地点辐角 86.858° 89.737°
升交点赤经 23.217° 24.244°
平近点角 335.833° 279.813°
近地点 948.301km 948.21km
远地点 1003.979km 1004.092km
周期 104.609分钟 104.609分钟
每日圈数 13.765531 13.7655
详细信息
使用方式:
暂无
2D轨道图
3D轨道图
轨道高度分析图
轨道倾角分析图
轨道综合分析图
查看轨道综合分析图